| time (UTC) | temp C | wind direction | speed KPH | gust KPH | rain 1hr cm | rain 24hr cm | rain mn cm | humidity % | barometer mb |
| 20260831014504 | 13 | 0 | 0.0 | 0.0 | 0.00 | 0.00 | 0.00 | 94 | 1012.3 |
| 20260831014455 | 13 | 112 | 0.0 | 1.6 | 0.00 | 0.00 | 0.00 | 95 | 1014.2 |
| 20260831014004 | 13 | 0 | 0.0 | 0.0 | 0.00 | 0.00 | 0.00 | 94 | 1012.3 |
| 20260831013955 | 13 | 135 | 0.0 | 1.6 | 0.00 | 0.00 | 0.00 | 96 | 1014.5 |
| 20260831013504 | 13 | 0 | 0.0 | 0.0 | 0.00 | 0.00 | 0.00 | 93 | 1012.4 |
| 20260831013455 | 13 | 0 | 0.0 | 0.0 | 0.00 | 0.00 | 0.00 | 96 | 1014.3 |
| 20260831013003 | 13 | 0 | 0.0 | 0.0 | 0.00 | 0.00 | 0.00 | 93 | 1012.4 |
| 20260831012955 | 13 | 18 | 0.0 | 12.9 | 0.00 | 0.00 | 0.00 | 96 | 1014.3 |
| 20260831012503 | 13 | 0 | 0.0 | 0.0 | 0.00 | 0.00 | 0.00 | 93 | 1012.3 |
| 20260831012455 | 13 | 10 | 0.0 | 12.9 | 0.00 | 0.00 | 0.00 | 95 | 1014.2 |
| 20260831011955 | 13 | 135 | 0.0 | 1.6 | 0.00 | 0.00 | 0.00 | 95 | 1014.4 |
| 20260831011504 | 14 | 0 | 0.0 | 0.0 | 0.00 | 0.00 | 0.00 | 94 | 1012.4 |
| 20260831011004 | 14 | 0 | 0.0 | 0.0 | 0.00 | 0.00 | 0.00 | 93 | 1012.2 |
| 20260831010956 | 14 | 135 | 0.0 | 1.6 | 0.00 | 0.00 | 0.00 | 94 | 1014.3 |
| 20260831010504 | 14 | 0 | 0.0 | 0.0 | 0.00 | 0.00 | 0.00 | 93 | 1012.3 |
| 20260831010455 | 14 | 0 | 0.0 | 0.0 | 0.00 | 0.00 | 0.00 | 94 | 1014.1 |
| 20260831010004 | 14 | 0 | 0.0 | 0.0 | 0.00 | 0.00 | 0.00 | 93 | 1012.1 |
| 20260831010001 | 14 | 0 | 0.0 | 0.0 | 0.00 | 0.00 | 0.00 | 94 | 1014.0 |
| 20260831005504 | 14 | 0 | 0.0 | 0.0 | 0.00 | 0.00 | 0.00 | 93 | 1012.2 |
| 20260831005455 | 14 | 286 | 0.0 | 3.2 | 0.00 | 0.00 | 0.00 | 94 | 1014.4 |
| 20260831005003 | 14 | 0 | 0.0 | 0.0 | 0.00 | 0.00 | 0.00 | 93 | 1012.3 |
| 20260831004955 | 14 | 291 | 0.0 | 3.2 | 0.00 | 0.00 | 0.00 | 94 | 1014.2 |
| 20260831004504 | 15 | 0 | 0.0 | 0.0 | 0.00 | 0.00 | 0.00 | 93 | 1012.4 |
| 20260831004458 | 15 | 46 | 0.0 | 1.6 | 0.00 | 0.00 | 0.00 | 94 | 1014.5 |
| 20260831004004 | 15 | 0 | 0.0 | 0.0 | 0.00 | 0.00 | 0.00 | 93 | 1012.5 |
| 20260831003956 | 15 | 135 | 0.0 | 1.6 | 0.00 | 0.00 | 0.00 | 94 | 1014.3 |
| 20260831003503 | 15 | 0 | 0.0 | 0.0 | 0.00 | 0.00 | 0.00 | 93 | 1012.4 |
| 20260831003455 | 14 | 135 | 0.0 | 1.6 | 0.00 | 0.00 | 0.00 | 94 | 1014.5 |
| 20260831003004 | 14 | 0 | 0.0 | 0.0 | 0.00 | 0.00 | 0.00 | 93 | 1012.6 |
| 20260831002955 | 14 | 0 | 0.0 | 0.0 | 0.00 | 0.00 | 0.00 | 94 | 1014.5 |
| 20260831002504 | 14 | 0 | 0.0 | 0.0 | 0.00 | 0.00 | 0.00 | 92 | 1012.5 |
| 20260831002004 | 15 | 0 | 0.0 | 0.0 | 0.00 | 0.00 | 0.00 | 92 | 1012.6 |
| 20260831001955 | 14 | 0 | 0.0 | 0.0 | 0.00 | 0.00 | 0.00 | 94 | 1014.6 |
| 20260831001504 | 14 | 0 | 0.0 | 0.0 | 0.00 | 0.00 | 0.00 | 92 | 1012.6 |
| 20260831001455 | 15 | 0 | 0.0 | 0.0 | 0.00 | 0.00 | 0.00 | 93 | 1014.3 |
| 20260831001004 | 15 | 0 | 0.0 | 0.0 | 0.00 | 0.00 | 0.00 | 92 | 1012.6 |
| 20260831000455 | 15 | 0 | 0.0 | 0.0 | 0.00 | 0.00 | 0.00 | 93 | 1014.5 |
| 20260831000003 | 15 | 0 | 0.0 | 0.0 | 0.00 | 0.00 | 0.00 | 92 | 1012.5 |
| 20260831000001 | 15 | 0 | 0.0 | 0.0 | 0.00 | 0.00 | 0.00 | 92 | 1014.4 |
| 20260830235504 | 15 | 0 | 0.0 | 0.0 | 0.00 | 0.00 | 0.00 | 91 | 1012.6 |
| 20260830235456 | 15 | 0 | 0.0 | 0.0 | 0.00 | 0.00 | 0.00 | 92 | 1014.5 |
| 20260830235004 | 15 | 0 | 0.0 | 0.0 | 0.00 | 0.00 | 0.00 | 91 | 1012.6 |
| 20260830234955 | 15 | 0 | 0.0 | 0.0 | 0.00 | 0.00 | 0.00 | 92 | 1014.4 |
| 20260830234503 | 15 | 0 | 0.0 | 0.0 | 0.00 | 0.00 | 0.00 | 91 | 1012.4 |
| 20260830234455 | 15 | 0 | 0.0 | 0.0 | 0.00 | 0.00 | 0.00 | 92 | 1014.5 |
| 20260830234004 | 15 | 0 | 0.0 | 0.0 | 0.00 | 0.00 | 0.00 | 91 | 1012.5 |
| 20260830233955 | 15 | 0 | 0.0 | 0.0 | 0.00 | 0.00 | 0.00 | 92 | 1014.4 |
| 20260830233504 | 15 | 0 | 0.0 | 0.0 | 0.00 | 0.00 | 0.00 | 90 | 1012.6 |
| 20260830233455 | 15 | 0 | 0.0 | 0.0 | 0.00 | 0.00 | 0.00 | 92 | 1014.4 |
| 20260830232955 | 15 | 135 | 0.0 | 1.6 | 0.00 | 0.00 | 0.00 | 92 | 1014.5 |
| 20260830232503 | 15 | 0 | 0.0 | 0.0 | 0.00 | 0.00 | 0.00 | 90 | 1012.7 |
| 20260830232455 | 15 | 135 | 0.0 | 1.6 | 0.00 | 0.00 | 0.00 | 92 | 1014.4 |
| 20260830232004 | 15 | 0 | 0.0 | 0.0 | 0.00 | 0.00 | 0.00 | 90 | 1012.7 |
| 20260830231956 | 15 | 169 | 0.0 | 1.6 | 0.00 | 0.00 | 0.00 | 91 | 1014.5 |
| 20260830231504 | 15 | 0 | 0.0 | 0.0 | 0.00 | 0.00 | 0.00 | 89 | 1012.7 |
| 20260830231455 | 15 | 174 | 1.6 | 3.2 | 0.00 | 0.00 | 0.00 | 91 | 1014.7 |
| 20260830231003 | 15 | 0 | 0.0 | 0.0 | 0.00 | 0.00 | 0.00 | 89 | 1012.6 |
| 20260830230956 | 15 | 181 | 0.0 | 3.2 | 0.00 | 0.00 | 0.00 | 90 | 1014.5 |
| 20260830230504 | 15 | 0 | 0.0 | 0.0 | 0.00 | 0.00 | 0.00 | 89 | 1012.6 |
| 20260830230455 | 15 | 225 | 0.0 | 1.6 | 0.00 | 0.00 | 0.00 | 90 | 1014.5 |
| 20260830230002 | 15 | 225 | 0.0 | 1.6 | 0.00 | 0.00 | 0.00 | 90 | 1014.5 |
| 20260830225503 | 15 | 0 | 0.0 | 0.0 | 0.00 | 0.00 | 0.00 | 89 | 1012.8 |
| 20260830225456 | 15 | 0 | 0.0 | 0.0 | 0.00 | 0.00 | 0.00 | 89 | 1014.7 |
| 20260830225004 | 15 | 0 | 0.0 | 0.0 | 0.00 | 0.00 | 0.00 | 89 | 1012.6 |
| 20260830224955 | 15 | 0 | 0.0 | 0.0 | 0.00 | 0.00 | 0.00 | 89 | 1014.7 |
| 20260830224504 | 15 | 0 | 0.0 | 0.0 | 0.00 | 0.00 | 0.00 | 88 | 1012.7 |
| 20260830224456 | 15 | 165 | 0.0 | 1.6 | 0.00 | 0.00 | 0.00 | 89 | 1014.5 |
| 20260830224003 | 15 | 0 | 0.0 | 0.0 | 0.00 | 0.00 | 0.00 | 88 | 1012.7 |
| 20260830223955 | 15 | 169 | 1.6 | 3.2 | 0.00 | 0.00 | 0.00 | 89 | 1014.6 |
| 20260830223503 | 15 | 0 | 0.0 | 0.0 | 0.00 | 0.00 | 0.00 | 88 | 1012.8 |
| 20260830223455 | 15 | 166 | 1.6 | 3.2 | 0.00 | 0.00 | 0.00 | 89 | 1014.6 |
| 20260830223004 | 15 | 0 | 0.0 | 0.0 | 0.00 | 0.00 | 0.00 | 88 | 1012.8 |
| 20260830222956 | 15 | 141 | 0.0 | 3.2 | 0.00 | 0.00 | 0.00 | 88 | 1014.7 |
| 20260830222504 | 15 | 0 | 0.0 | 0.0 | 0.00 | 0.00 | 0.00 | 88 | 1012.6 |
| 20260830222455 | 15 | 163 | 1.6 | 3.2 | 0.00 | 0.00 | 0.00 | 88 | 1014.6 |
| 20260830222004 | 15 | 0 | 0.0 | 0.0 | 0.00 | 0.00 | 0.00 | 88 | 1012.7 |
| 20260830221503 | 15 | 0 | 0.0 | 0.0 | 0.00 | 0.00 | 0.00 | 87 | 1012.5 |
| 20260830221456 | 15 | 0 | 0.0 | 0.0 | 0.00 | 0.00 | 0.00 | 88 | 1014.7 |
| 20260830221003 | 16 | 0 | 0.0 | 0.0 | 0.00 | 0.00 | 0.00 | 87 | 1012.5 |
| 20260830220955 | 16 | 171 | 0.0 | 3.2 | 0.00 | 0.00 | 0.00 | 87 | 1014.3 |
| 20260830220504 | 16 | 0 | 0.0 | 0.0 | 0.00 | 0.00 | 0.00 | 86 | 1012.5 |
| 20260830220455 | 16 | 169 | 0.0 | 3.2 | 0.00 | 0.00 | 0.00 | 86 | 1014.5 |
| 20260830220005 | 16 | 0 | 0.0 | 0.0 | 0.00 | 0.00 | 0.00 | 86 | 1012.6 |
| 20260830215503 | 16 | 0 | 0.0 | 0.0 | 0.00 | 0.00 | 0.00 | 86 | 1012.6 |
| 20260830215455 | 16 | 135 | 0.0 | 1.6 | 0.00 | 0.00 | 0.00 | 86 | 1014.5 |
| 20260830214455 | 16 | 176 | 1.6 | 3.2 | 0.00 | 0.00 | 0.00 | 85 | 1014.4 |
| 20260830214003 | 16 | 1 | 0.0 | 3.2 | 0.00 | 0.00 | 0.00 | 85 | 1012.6 |
| 20260830213956 | 16 | 181 | 1.6 | 3.2 | 0.00 | 0.00 | 0.00 | 85 | 1014.4 |
| 20260830213504 | 16 | 1 | 0.0 | 3.2 | 0.00 | 0.00 | 0.00 | 84 | 1012.6 |
| 20260830213455 | 16 | 181 | 1.6 | 3.2 | 0.00 | 0.00 | 0.00 | 84 | 1014.4 |
| 20260830213004 | 16 | 0 | 0.0 | 0.0 | 0.00 | 0.00 | 0.00 | 84 | 1012.5 |
| 20260830212957 | 16 | 181 | 0.0 | 1.6 | 0.00 | 0.00 | 0.00 | 84 | 1014.5 |
| 20260830212503 | 16 | 0 | 0.0 | 0.0 | 0.00 | 0.00 | 0.00 | 84 | 1012.5 |
| 20260830212455 | 16 | 0 | 0.0 | 0.0 | 0.00 | 0.00 | 0.00 | 84 | 1014.5 |
| 20260830212003 | 16 | 0 | 0.0 | 0.0 | 0.00 | 0.00 | 0.00 | 84 | 1012.6 |
| 20260830211956 | 16 | 0 | 0.0 | 0.0 | 0.00 | 0.00 | 0.00 | 83 | 1014.3 |
| 20260830211504 | 16 | 0 | 0.0 | 0.0 | 0.00 | 0.00 | 0.00 | 84 | 1012.3 |
| 20260830211456 | 16 | 0 | 0.0 | 0.0 | 0.00 | 0.00 | 0.00 | 83 | 1014.2 |
| 20260830211003 | 16 | 0 | 0.0 | 0.0 | 0.00 | 0.00 | 0.00 | 84 | 1012.5 |
| 20260830210955 | 17 | 0 | 0.0 | 0.0 | 0.00 | 0.00 | 0.00 | 82 | 1014.2 |
| 20260830210503 | 17 | 0 | 0.0 | 0.0 | 0.00 | 0.00 | 0.00 | 83 | 1012.5 |
| 20260830210456 | 17 | 0 | 0.0 | 0.0 | 0.00 | 0.00 | 0.00 | 82 | 1014.4 |
| 20260830210001 | 17 | 0 | 0.0 | 0.0 | 0.00 | 0.00 | 0.00 | 82 | 1014.3 |
| 20260830205504 | 17 | 0 | 0.0 | 0.0 | 0.00 | 0.00 | 0.00 | 83 | 1012.3 |
| 20260830205003 | 17 | 1 | 0.0 | 1.6 | 0.00 | 0.00 | 0.00 | 82 | 1012.3 |
| 20260830204955 | 17 | 149 | 1.6 | 3.2 | 0.00 | 0.00 | 0.00 | 82 | 1014.2 |
| 20260830204456 | 17 | 116 | 1.6 | 3.2 | 0.00 | 0.00 | 0.00 | 82 | 1014.2 |
| 20260830204003 | 17 | 1 | 0.0 | 1.6 | 0.00 | 0.00 | 0.00 | 82 | 1012.3 |
| 20260830203503 | 17 | 1 | 0.0 | 1.6 | 0.00 | 0.00 | 0.00 | 82 | 1012.3 |
| 20260830202956 | 17 | 112 | 0.0 | 1.6 | 0.00 | 0.00 | 0.00 | 80 | 1014.3 |
| 20260830202503 | 17 | 0 | 0.0 | 0.0 | 0.00 | 0.00 | 0.00 | 81 | 1012.4 |
| 20260830202003 | 17 | 0 | 0.0 | 0.0 | 0.00 | 0.00 | 0.00 | 81 | 1012.3 |
| 20260830201957 | 17 | 1 | 0.0 | 1.6 | 0.00 | 0.00 | 0.00 | 78 | 1014.2 |
| 20260830201456 | 18 | 140 | 0.0 | 3.2 | 0.00 | 0.00 | 0.00 | 77 | 1014.2 |
| 20260830200956 | 18 | 137 | 1.6 | 3.2 | 0.00 | 0.00 | 0.00 | 77 | 1014.2 |
| 20260830200503 | 18 | 0 | 0.0 | 0.0 | 0.00 | 0.00 | 0.00 | 79 | 1012.3 |
| 20260830200003 | 18 | 0 | 0.0 | 0.0 | 0.00 | 0.00 | 0.00 | 79 | 1012.3 |
| 20260830195503 | 18 | 181 | 0.0 | 1.6 | 0.00 | 0.00 | 0.00 | 78 | 1012.3 |
| 20260830195004 | 18 | 181 | 0.0 | 1.6 | 0.00 | 0.00 | 0.00 | 77 | 1012.4 |
| 20260830194956 | 18 | 159 | 1.6 | 3.2 | 0.00 | 0.00 | 0.00 | 75 | 1014.2 |
| 20260830194503 | 18 | 0 | 0.0 | 0.0 | 0.00 | 0.00 | 0.00 | 77 | 1012.2 |
| 20260830194455 | 18 | 0 | 0.0 | 0.0 | 0.00 | 0.00 | 0.00 | 75 | 1014.1 |
| 20260830194003 | 18 | 0 | 0.0 | 0.0 | 0.00 | 0.00 | 0.00 | 76 | 1012.2 |
| 20260830193503 | 18 | 0 | 0.0 | 0.0 | 0.00 | 0.00 | 0.00 | 76 | 1012.3 |
| 20260830193456 | 19 | 0 | 0.0 | 0.0 | 0.00 | 0.00 | 0.00 | 72 | 1014.3 |
| 20260830193003 | 18 | 0 | 0.0 | 0.0 | 0.00 | 0.00 | 0.00 | 74 | 1012.4 |
| 20260830192956 | 19 | 0 | 0.0 | 0.0 | 0.00 | 0.00 | 0.00 | 71 | 1014.2 |
| 20260830192002 | 19 | 0 | 0.0 | 0.0 | 0.00 | 0.00 | 0.00 | 73 | 1012.2 |
| 20260830191503 | 19 | 0 | 0.0 | 0.0 | 0.00 | 0.00 | 0.00 | 72 | 1012.3 |
| 20260830191456 | 20 | 0 | 0.0 | 0.0 | 0.00 | 0.00 | 0.00 | 68 | 1014.1 |
| 20260830191003 | 20 | 0 | 0.0 | 0.0 | 0.00 | 0.00 | 0.00 | 70 | 1012.3 |
| 20260830190956 | 20 | 0 | 0.0 | 0.0 | 0.00 | 0.00 | 0.00 | 67 | 1014.0 |
| 20260830190003 | 20 | 258 | 0.0 | 1.6 | 0.00 | 0.00 | 0.00 | 68 | 1012.1 |
| 20260830185503 | 21 | 197 | 1.6 | 3.2 | 0.00 | 0.00 | 0.00 | 68 | 1012.3 |
| 20260830185002 | 21 | 181 | 3.2 | 3.2 | 0.00 | 0.00 | 0.00 | 66 | 1012.1 |
| 20260830184956 | 21 | 178 | 3.2 | 4.8 | 0.00 | 0.00 | 0.00 | 64 | 1014.1 |
| 20260830184503 | 21 | 177 | 3.2 | 6.4 | 0.00 | 0.00 | 0.00 | 66 | 1012.2 |
| 20260830184456 | 21 | 184 | 4.8 | 6.4 | 0.00 | 0.00 | 0.00 | 64 | 1013.9 |
| 20260830184003 | 21 | 175 | 4.8 | 6.4 | 0.00 | 0.00 | 0.00 | 66 | 1012.1 |
| 20260830183956 | 21 | 175 | 4.8 | 6.4 | 0.00 | 0.00 | 0.00 | 63 | 1014.0 |
| 20260830183502 | 21 | 177 | 4.8 | 6.4 | 0.00 | 0.00 | 0.00 | 65 | 1012.1 |
| 20260830183456 | 22 | 174 | 4.8 | 6.4 | 0.00 | 0.00 | 0.00 | 62 | 1014.1 |
| 20260830183003 | 21 | 181 | 4.8 | 6.4 | 0.00 | 0.00 | 0.00 | 65 | 1012.0 |
| 20260830182956 | 22 | 181 | 4.8 | 6.4 | 0.00 | 0.00 | 0.00 | 62 | 1014.1 |
| 20260830182503 | 21 | 181 | 4.8 | 6.4 | 0.00 | 0.00 | 0.00 | 65 | 1012.1 |
| 20260830182456 | 22 | 177 | 4.8 | 6.4 | 0.00 | 0.00 | 0.00 | 62 | 1014.0 |
| 20260830182002 | 21 | 181 | 3.2 | 6.4 | 0.00 | 0.00 | 0.00 | 64 | 1012.1 |
| 20260830181956 | 22 | 174 | 3.2 | 6.4 | 0.00 | 0.00 | 0.00 | 62 | 1013.7 |
| 20260830181502 | 22 | 181 | 0.0 | 3.2 | 0.00 | 0.00 | 0.00 | 63 | 1011.9 |
| 20260830181457 | 22 | 181 | 0.0 | 3.2 | 0.00 | 0.00 | 0.00 | 62 | 1013.8 |
| 20260830180502 | 22 | 270 | 0.0 | 1.6 | 0.00 | 0.00 | 0.00 | 61 | 1011.8 |
| 20260830180456 | 23 | 181 | 0.0 | 1.6 | 0.00 | 0.00 | 0.00 | 59 | 1013.5 |
| 20260830180002 | 23 | 181 | 1.6 | 3.2 | 0.00 | 0.00 | 0.00 | 59 | 1013.5 |
| 20260830175502 | 23 | 193 | 1.6 | 4.8 | 0.00 | 0.00 | 0.00 | 59 | 1011.7 |
| 20260830175456 | 23 | 181 | 3.2 | 4.8 | 0.00 | 0.00 | 0.00 | 57 | 1013.5 |
| 20260830175002 | 23 | 181 | 3.2 | 4.8 | 0.00 | 0.00 | 0.00 | 58 | 1011.6 |
| 20260830174502 | 23 | 183 | 1.6 | 3.2 | 0.00 | 0.00 | 0.00 | 57 | 1011.5 |
| 20260830174002 | 23 | 220 | 3.2 | 4.8 | 0.00 | 0.00 | 0.00 | 57 | 1011.5 |
| 20260830173956 | 23 | 171 | 1.6 | 6.4 | 0.00 | 0.00 | 0.00 | 55 | 1013.4 |
| 20260830173502 | 23 | 255 | 1.6 | 4.8 | 0.00 | 0.00 | 0.00 | 57 | 1011.5 |
| 20260830173456 | 23 | 189 | 3.2 | 6.4 | 0.00 | 0.00 | 0.00 | 54 | 1013.2 |
| 20260830172502 | 23 | 194 | 3.2 | 6.4 | 0.00 | 0.00 | 0.00 | 58 | 1011.4 |
| 20260830172456 | 23 | 191 | 4.8 | 8.0 | 0.00 | 0.00 | 0.00 | 54 | 1013.3 |
| 20260830172001 | 23 | 186 | 3.2 | 4.8 | 0.00 | 0.00 | 0.00 | 57 | 1011.3 |
| 20260830171957 | 23 | 191 | 3.2 | 4.8 | 0.00 | 0.00 | 0.00 | 54 | 1013.3 |
| 20260830171456 | 23 | 188 | 3.2 | 4.8 | 0.00 | 0.00 | 0.00 | 54 | 1013.1 |
| 20260830171002 | 23 | 209 | 1.6 | 4.8 | 0.00 | 0.00 | 0.00 | 58 | 1011.4 |
| 20260830170956 | 24 | 195 | 1.6 | 4.8 | 0.00 | 0.00 | 0.00 | 55 | 1013.2 |
| 20260830170502 | 24 | 185 | 3.2 | 4.8 | 0.00 | 0.00 | 0.00 | 55 | 1011.5 |
| 20260830170456 | 24 | 182 | 3.2 | 4.8 | 0.00 | 0.00 | 0.00 | 52 | 1013.2 |
| 20260830170002 | 24 | 181 | 3.2 | 4.8 | 0.00 | 0.00 | 0.00 | 54 | 1011.3 |
| 20260830165502 | 24 | 181 | 1.6 | 4.8 | 0.00 | 0.00 | 0.00 | 54 | 1011.2 |
| 20260830165002 | 24 | 181 | 3.2 | 4.8 | 0.00 | 0.00 | 0.00 | 54 | 1011.3 |
| 20260830164957 | 24 | 181 | 3.2 | 4.8 | 0.00 | 0.00 | 0.00 | 51 | 1013.3 |
| 20260830164502 | 24 | 181 | 3.2 | 4.8 | 0.00 | 0.00 | 0.00 | 54 | 1011.4 |
| 20260830164002 | 24 | 188 | 1.6 | 3.2 | 0.00 | 0.00 | 0.00 | 54 | 1011.4 |
| 20260830163957 | 25 | 177 | 1.6 | 3.2 | 0.00 | 0.00 | 0.00 | 51 | 1013.0 |
| 20260830163502 | 24 | 200 | 0.0 | 1.6 | 0.00 | 0.00 | 0.00 | 54 | 1011.3 |
| 20260830163456 | 25 | 167 | 1.6 | 3.2 | 0.00 | 0.00 | 0.00 | 51 | 1013.2 |
| 20260830163002 | 25 | 183 | 1.6 | 4.8 | 0.00 | 0.00 | 0.00 | 53 | 1011.3 |
| 20260830162956 | 25 | 176 | 1.6 | 4.8 | 0.00 | 0.00 | 0.00 | 50 | 1013.1 |
| 20260830162501 | 25 | 193 | 3.2 | 6.4 | 0.00 | 0.00 | 0.00 | 51 | 1011.3 |
| 20260830162457 | 25 | 177 | 3.2 | 6.4 | 0.00 | 0.00 | 0.00 | 49 | 1013.3 |
| 20260830162002 | 25 | 189 | 4.8 | 6.4 | 0.00 | 0.00 | 0.00 | 51 | 1011.3 |
| 20260830161956 | 25 | 178 | 4.8 | 6.4 | 0.00 | 0.00 | 0.00 | 49 | 1013.4 |
| 20260830161002 | 25 | 194 | 1.6 | 3.2 | 0.00 | 0.00 | 0.00 | 50 | 1011.2 |
| 20260830160502 | 25 | 215 | 3.2 | 6.4 | 0.00 | 0.00 | 0.00 | 49 | 1011.5 |
| 20260830160457 | 25 | 188 | 3.2 | 8.0 | 0.00 | 0.00 | 0.00 | 47 | 1013.1 |
| 20260830160002 | 25 | 201 | 3.2 | 8.0 | 0.00 | 0.00 | 0.00 | 47 | 1013.3 |
| 20260830155502 | 25 | 215 | 3.2 | 6.4 | 0.00 | 0.00 | 0.00 | 48 | 1011.4 |
| 20260830155457 | 26 | 205 | 4.8 | 8.0 | 0.00 | 0.00 | 0.00 | 46 | 1013.4 |
| 20260830155002 | 25 | 222 | 4.8 | 6.4 | 0.00 | 0.00 | 0.00 | 48 | 1011.3 |
| 20260830154956 | 26 | 194 | 4.8 | 8.0 | 0.00 | 0.00 | 0.00 | 45 | 1013.2 |
| 20260830154501 | 26 | 200 | 4.8 | 9.7 | 0.00 | 0.00 | 0.00 | 47 | 1011.2 |
| 20260830154457 | 26 | 195 | 4.8 | 11.3 | 0.00 | 0.00 | 0.00 | 45 | 1013.2 |
| 20260830153956 | 26 | 206 | 6.4 | 12.9 | 0.00 | 0.00 | 0.00 | 45 | 1013.3 |
| 20260830153502 | 26 | 229 | 6.4 | 12.9 | 0.00 | 0.00 | 0.00 | 47 | 1011.4 |
| 20260830153456 | 26 | 203 | 6.4 | 12.9 | 0.00 | 0.00 | 0.00 | 45 | 1013.3 |
| 20260830152456 | 26 | 223 | 6.4 | 11.3 | 0.00 | 0.00 | 0.00 | 45 | 1013.6 |
| 20260830151957 | 26 | 219 | 4.8 | 11.3 | 0.00 | 0.00 | 0.00 | 45 | 1013.5 |
| 20260830151501 | 26 | 219 | 6.4 | 9.7 | 0.00 | 0.00 | 0.00 | 46 | 1011.6 |
| 20260830151457 | 26 | 224 | 4.8 | 11.3 | 0.00 | 0.00 | 0.00 | 44 | 1013.6 |
| 20260830150502 | 26 | 219 | 9.7 | 12.9 | 0.00 | 0.00 | 0.00 | 44 | 1011.5 |
| 20260830150456 | 26 | 208 | 9.7 | 16.1 | 0.00 | 0.00 | 0.00 | 43 | 1013.4 |
| 20260830145501 | 26 | 231 | 9.7 | 16.1 | 0.00 | 0.00 | 0.00 | 45 | 1011.6 |
| 20260830145456 | 27 | 234 | 9.7 | 14.5 | 0.00 | 0.00 | 0.00 | 42 | 1013.5 |
| 20260830145002 | 26 | 214 | 9.7 | 14.5 | 0.00 | 0.00 | 0.00 | 45 | 1011.6 |
| 20260830144957 | 26 | 215 | 9.7 | 14.5 | 0.00 | 0.00 | 0.00 | 43 | 1013.4 |
| 20260830144502 | 26 | 201 | 8.0 | 14.5 | 0.00 | 0.00 | 0.00 | 45 | 1011.6 |
| 20260830144456 | 26 | 226 | 9.7 | 16.1 | 0.00 | 0.00 | 0.00 | 43 | 1013.5 |
| 20260830144002 | 26 | 214 | 9.7 | 14.5 | 0.00 | 0.00 | 0.00 | 45 | 1011.7 |
| 20260830143457 | 26 | 210 | 14.5 | 20.9 | 0.00 | 0.00 | 0.00 | 43 | 1013.5 |
| 20260830143001 | 26 | 162 | 16.1 | 22.5 | 0.00 | 0.00 | 0.00 | 44 | 1011.5 |
| 20260830142956 | 26 | 193 | 17.7 | 24.1 | 0.00 | 0.00 | 0.00 | 43 | 1013.7 |
| 20260830142502 | 26 | 174 | 12.9 | 22.5 | 0.00 | 0.00 | 0.00 | 44 | 1011.6 |
| 20260830142457 | 26 | 179 | 14.5 | 24.1 | 0.00 | 0.00 | 0.00 | 43 | 1013.7 |
| 20260830142002 | 26 | 192 | 12.9 | 22.5 | 0.00 | 0.00 | 0.00 | 44 | 1011.8 |
| 20260830141957 | 26 | 182 | 14.5 | 24.1 | 0.00 | 0.00 | 0.00 | 43 | 1013.5 |
| 20260830141501 | 26 | 186 | 11.3 | 22.5 | 0.00 | 0.00 | 0.00 | 44 | 1011.7 |
| 20260830141458 | 26 | 188 | 12.9 | 24.1 | 0.00 | 0.00 | 0.00 | 42 | 1013.5 |
| 20260830141002 | 26 | 183 | 9.7 | 12.9 | 0.00 | 0.00 | 0.00 | 45 | 1011.8 |
| 20260830140957 | 26 | 183 | 9.7 | 12.9 | 0.00 | 0.00 | 0.00 | 43 | 1013.6 |
| 20260830140502 | 26 | 177 | 9.7 | 14.5 | 0.00 | 0.00 | 0.00 | 45 | 1011.8 |
| 20260830140457 | 26 | 185 | 9.7 | 16.1 | 0.00 | 0.00 | 0.00 | 43 | 1013.7 |
| 20260830140004 | 26 | 184 | 11.3 | 19.3 | 0.00 | 0.00 | 0.00 | 43 | 1013.8 |
| 20260830140001 | 26 | 176 | 11.3 | 17.7 | 0.00 | 0.00 | 0.00 | 45 | 1011.8 |
| 20260830135502 | 26 | 188 | 14.5 | 25.7 | 0.00 | 0.00 | 0.00 | 44 | 1011.8 |
| 20260830135456 | 26 | 182 | 14.5 | 25.7 | 0.00 | 0.00 | 0.00 | 42 | 1013.9 |
| 20260830135002 | 26 | 220 | 12.9 | 25.7 | 0.00 | 0.00 | 0.00 | 43 | 1011.7 |
| 20260830134957 | 27 | 204 | 14.5 | 25.7 | 0.00 | 0.00 | 0.00 | 41 | 1013.8 |
| 20260830134502 | 26 | 270 | 11.3 | 16.1 | 0.00 | 0.00 | 0.00 | 44 | 1011.9 |
| 20260830133957 | 27 | 252 | 11.3 | 16.1 | 0.00 | 0.00 | 0.00 | 41 | 1013.8 |
| 20260830133502 | 26 | 207 | 12.9 | 17.7 | 0.00 | 0.00 | 0.00 | 44 | 1011.7 |
| 20260830133457 | 27 | 188 | 12.9 | 20.9 | 0.00 | 0.00 | 0.00 | 42 | 1013.7 |
| 20260830132957 | 26 | 173 | 16.1 | 24.1 | 0.00 | 0.00 | 0.00 | 42 | 1013.7 |
| 20260830132501 | 26 | 177 | 14.5 | 20.9 | 0.00 | 0.00 | 0.00 | 43 | 1011.7 |
| 20260830132457 | 26 | 181 | 16.1 | 24.1 | 0.00 | 0.00 | 0.00 | 42 | 1013.8 |
| 20260830132002 | 26 | 183 | 14.5 | 17.7 | 0.00 | 0.00 | 0.00 | 44 | 1011.9 |
| 20260830131956 | 26 | 183 | 12.9 | 17.7 | 0.00 | 0.00 | 0.00 | 42 | 1013.7 |
| 20260830131502 | 26 | 176 | 12.9 | 17.7 | 0.00 | 0.00 | 0.00 | 44 | 1011.9 |
| 20260830131457 | 26 | 192 | 12.9 | 17.7 | 0.00 | 0.00 | 0.00 | 42 | 1013.8 |
| 20260830131002 | 26 | 172 | 11.3 | 17.7 | 0.00 | 0.00 | 0.00 | 44 | 1011.9 |
| 20260830130957 | 26 | 194 | 11.3 | 17.7 | 0.00 | 0.00 | 0.00 | 42 | 1013.8 |
| 20260830130501 | 26 | 172 | 11.3 | 17.7 | 0.00 | 0.00 | 0.00 | 44 | 1011.9 |
| 20260830130003 | 27 | 158 | 11.3 | 17.7 | 0.00 | 0.00 | 0.00 | 41 | 1013.7 |
| 20260830125502 | 26 | 248 | 9.7 | 17.7 | 0.00 | 0.00 | 0.00 | 44 | 1011.9 |
| 20260830125457 | 27 | 203 | 9.7 | 17.7 | 0.00 | 0.00 | 0.00 | 41 | 1014.0 |
| 20260830125001 | 26 | 259 | 9.7 | 17.7 | 0.00 | 0.00 | 0.00 | 44 | 1012.0 |
| 20260830124957 | 27 | 220 | 11.3 | 17.7 | 0.00 | 0.00 | 0.00 | 41 | 1014.0 |
| 20260830124502 | 26 | 228 | 9.7 | 12.9 | 0.00 | 0.00 | 0.00 | 45 | 1012.0 |
| 20260830124457 | 26 | 211 | 11.3 | 16.1 | 0.00 | 0.00 | 0.00 | 43 | 1013.8 |
| 20260830124002 | 26 | 222 | 12.9 | 24.1 | 0.00 | 0.00 | 0.00 | 44 | 1012.0 |
| 20260830123957 | 26 | 190 | 14.5 | 25.7 | 0.00 | 0.00 | 0.00 | 42 | 1014.0 |
| 20260830123502 | 26 | 203 | 17.7 | 27.4 | 0.00 | 0.00 | 0.00 | 44 | 1012.0 |
| 20260830123457 | 26 | 202 | 17.7 | 29.0 | 0.00 | 0.00 | 0.00 | 42 | 1014.1 |
| 20260830123001 | 26 | 195 | 16.1 | 27.4 | 0.00 | 0.00 | 0.00 | 44 | 1012.1 |
| 20260830122958 | 26 | 210 | 16.1 | 29.0 | 0.00 | 0.00 | 0.00 | 42 | 1014.0 |
| 20260830122501 | 26 | 206 | 11.3 | 19.3 | 0.00 | 0.00 | 0.00 | 44 | 1012.0 |
| 20260830122458 | 26 | 218 | 11.3 | 19.3 | 0.00 | 0.00 | 0.00 | 42 | 1014.1 |
| 20260830122002 | 26 | 214 | 9.7 | 12.9 | 0.00 | 0.00 | 0.00 | 44 | 1011.9 |
| 20260830121957 | 27 | 218 | 9.7 | 14.5 | 0.00 | 0.00 | 0.00 | 42 | 1014.1 |
| 20260830121458 | 26 | 217 | 9.7 | 17.7 | 0.00 | 0.00 | 0.00 | 43 | 1014.2 |
| 20260830121001 | 26 | 195 | 12.9 | 19.3 | 0.00 | 0.00 | 0.00 | 44 | 1012.1 |
| 20260830120957 | 26 | 197 | 12.9 | 19.3 | 0.00 | 0.00 | 0.00 | 43 | 1014.2 |
| 20260830120501 | 26 | 174 | 14.5 | 19.3 | 0.00 | 0.00 | 0.00 | 44 | 1012.2 |
| 20260830120457 | 26 | 202 | 14.5 | 19.3 | 0.00 | 0.00 | 0.00 | 42 | 1014.0 |
| 20260830120004 | 26 | 228 | 12.9 | 19.3 | 0.00 | 0.00 | 0.00 | 43 | 1014.2 |
| 20260830120002 | 26 | 184 | 11.3 | 17.7 | 0.00 | 0.00 | 0.00 | 45 | 1012.1 |
| 20260830115501 | 26 | 241 | 11.3 | 16.1 | 0.00 | 0.00 | 0.00 | 45 | 1012.2 |
| 20260830115457 | 26 | 193 | 11.3 | 16.1 | 0.00 | 0.00 | 0.00 | 43 | 1014.1 |
| 20260830115002 | 26 | 241 | 11.3 | 17.7 | 0.00 | 0.00 | 0.00 | 46 | 1012.4 |
| 20260830114957 | 26 | 215 | 11.3 | 17.7 | 0.00 | 0.00 | 0.00 | 42 | 1014.1 |
| 20260830114457 | 26 | 200 | 16.1 | 27.4 | 0.00 | 0.00 | 0.00 | 43 | 1014.4 |
| 20260830113958 | 26 | 175 | 16.1 | 27.4 | 0.00 | 0.00 | 0.00 | 44 | 1014.3 |
| 20260830113502 | 25 | 200 | 12.9 | 19.3 | 0.00 | 0.00 | 0.00 | 48 | 1012.5 |
| 20260830113457 | 25 | 181 | 14.5 | 19.3 | 0.00 | 0.00 | 0.00 | 47 | 1014.3 |
| 20260830113001 | 25 | 219 | 16.1 | 19.3 | 0.00 | 0.00 | 0.00 | 47 | 1012.7 |
| 20260830112958 | 25 | 212 | 16.1 | 19.3 | 0.00 | 0.00 | 0.00 | 45 | 1014.4 |
| 20260830112502 | 25 | 245 | 12.9 | 19.3 | 0.00 | 0.00 | 0.00 | 48 | 1012.7 |
| 20260830112002 | 25 | 202 | 9.7 | 16.1 | 0.00 | 0.00 | 0.00 | 47 | 1012.6 |
| 20260830111957 | 26 | 232 | 9.7 | 16.1 | 0.00 | 0.00 | 0.00 | 43 | 1014.6 |
| 20260830111458 | 26 | 182 | 12.9 | 19.3 | 0.00 | 0.00 | 0.00 | 44 | 1014.6 |
| 20260830111001 | 25 | 210 | 16.1 | 24.1 | 0.00 | 0.00 | 0.00 | 47 | 1012.6 |
| 20260830110958 | 26 | 184 | 17.7 | 24.1 | 0.00 | 0.00 | 0.00 | 45 | 1014.7 |
| 20260830110502 | 25 | 192 | 16.1 | 24.1 | 0.00 | 0.00 | 0.00 | 47 | 1012.7 |
| 20260830110005 | 26 | 170 | 14.5 | 24.1 | 0.00 | 0.00 | 0.00 | 45 | 1014.5 |
| 20260830110002 | 25 | 187 | 12.9 | 17.7 | 0.00 | 0.00 | 0.00 | 47 | 1012.7 |
| 20260830105501 | 25 | 183 | 16.1 | 22.5 | 0.00 | 0.00 | 0.00 | 49 | 1012.8 |
| 20260830104502 | 25 | 254 | 11.3 | 17.7 | 0.00 | 0.00 | 0.00 | 48 | 1013.1 |
| 20260830104458 | 25 | 216 | 12.9 | 17.7 | 0.00 | 0.00 | 0.00 | 45 | 1014.8 |
| 20260830104002 | 25 | 212 | 12.9 | 20.9 | 0.00 | 0.00 | 0.00 | 49 | 1013.1 |
| 20260830103957 | 25 | 196 | 14.5 | 24.1 | 0.00 | 0.00 | 0.00 | 46 | 1014.8 |
| 20260830103501 | 25 | 184 | 16.1 | 22.5 | 0.00 | 0.00 | 0.00 | 48 | 1013.1 |
| 20260830103002 | 25 | 176 | 17.7 | 24.1 | 0.00 | 0.00 | 0.00 | 48 | 1013.0 |
| 20260830102957 | 25 | 138 | 19.3 | 25.7 | 0.00 | 0.00 | 0.00 | 46 | 1014.8 |
| 20260830102502 | 25 | 169 | 19.3 | 24.1 | 0.00 | 0.00 | 0.00 | 49 | 1013.2 |
| 20260830102457 | 25 | 163 | 20.9 | 25.7 | 0.00 | 0.00 | 0.00 | 46 | 1015.2 |
| 20260830102002 | 24 | 169 | 19.3 | 24.1 | 0.00 | 0.00 | 0.00 | 49 | 1013.2 |
| 20260830101957 | 25 | 176 | 19.3 | 24.1 | 0.00 | 0.00 | 0.00 | 47 | 1015.2 |
| 20260830101502 | 24 | 175 | 17.7 | 22.5 | 0.00 | 0.00 | 0.00 | 49 | 1013.3 |
| 20260830101001 | 24 | 171 | 16.1 | 22.5 | 0.00 | 0.00 | 0.00 | 51 | 1013.3 |
| 20260830100958 | 24 | 178 | 14.5 | 22.5 | 0.00 | 0.00 | 0.00 | 49 | 1015.2 |
| 20260830100501 | 23 | 173 | 16.1 | 22.5 | 0.00 | 0.00 | 0.00 | 51 | 1013.5 |
| 20260830095502 | 23 | 206 | 11.3 | 20.9 | 0.00 | 0.00 | 0.00 | 52 | 1013.5 |
| 20260830095458 | 25 | 184 | 12.9 | 22.5 | 0.00 | 0.00 | 0.00 | 48 | 1015.2 |
| 20260830095001 | 23 | 245 | 9.7 | 17.7 | 0.00 | 0.00 | 0.00 | 55 | 1013.5 |
| 20260830094501 | 23 | 220 | 9.7 | 12.9 | 0.00 | 0.00 | 0.00 | 55 | 1013.5 |
| 20260830094458 | 23 | 194 | 9.7 | 14.5 | 0.00 | 0.00 | 0.00 | 53 | 1015.0 |
| 20260830094002 | 23 | 214 | 11.3 | 17.7 | 0.00 | 0.00 | 0.00 | 55 | 1013.5 |
| 20260830093958 | 23 | 184 | 11.3 | 17.7 | 0.00 | 0.00 | 0.00 | 53 | 1015.2 |
| 20260830093505 | 23 | 200 | 11.3 | 17.7 | 0.00 | 0.00 | 0.00 | 50 | 1015.2 |
| 20260830093502 | 23 | 209 | 11.3 | 17.7 | 0.00 | 0.00 | 0.00 | 55 | 1013.6 |
| 20260830093001 | 23 | 200 | 11.3 | 17.7 | 0.00 | 0.00 | 0.00 | 55 | 1013.6 |
| 20260830092958 | 24 | 203 | 12.9 | 17.7 | 0.00 | 0.00 | 0.00 | 50 | 1015.2 |
| 20260830092501 | 23 | 192 | 11.3 | 17.7 | 0.00 | 0.00 | 0.00 | 56 | 1013.7 |
| 20260830092457 | 24 | 197 | 11.3 | 17.7 | 0.00 | 0.00 | 0.00 | 52 | 1015.1 |
| 20260830092002 | 23 | 199 | 9.7 | 14.5 | 0.00 | 0.00 | 0.00 | 56 | 1013.6 |
| 20260830091502 | 23 | 215 | 8.0 | 11.3 | 0.00 | 0.00 | 0.00 | 56 | 1013.8 |
| 20260830091458 | 24 | 234 | 8.0 | 12.9 | 0.00 | 0.00 | 0.00 | 52 | 1015.4 |
| 20260830090958 | 23 | 208 | 9.7 | 17.7 | 0.00 | 0.00 | 0.00 | 54 | 1015.4 |
| 20260830090457 | 23 | 196 | 16.1 | 22.5 | 0.00 | 0.00 | 0.00 | 53 | 1015.2 |
| 20260830090004 | 23 | 199 | 17.7 | 24.1 | 0.00 | 0.00 | 0.00 | 51 | 1015.5 |
| 20260830090002 | 23 | 193 | 17.7 | 20.9 | 0.00 | 0.00 | 0.00 | 55 | 1013.7 |
| 20260830085501 | 23 | 200 | 14.5 | 20.9 | 0.00 | 0.00 | 0.00 | 55 | 1013.8 |
| 20260830085457 | 23 | 198 | 16.1 | 24.1 | 0.00 | 0.00 | 0.00 | 51 | 1015.3 |
| 20260830085001 | 23 | 182 | 12.9 | 17.7 | 0.00 | 0.00 | 0.00 | 56 | 1013.7 |
| 20260830084959 | 23 | 186 | 12.9 | 22.5 | 0.00 | 0.00 | 0.00 | 52 | 1015.7 |
| 20260830084502 | 22 | 203 | 9.7 | 14.5 | 0.00 | 0.00 | 0.00 | 58 | 1013.7 |
| 20260830084459 | 23 | 196 | 9.7 | 14.5 | 0.00 | 0.00 | 0.00 | 54 | 1015.5 |
| 20260830084002 | 22 | 215 | 9.7 | 22.5 | 0.00 | 0.00 | 0.00 | 61 | 1013.8 |
| 20260830083501 | 22 | 205 | 9.7 | 22.5 | 0.00 | 0.00 | 0.00 | 61 | 1013.6 |
| 20260830083458 | 22 | 195 | 11.3 | 24.1 | 0.00 | 0.00 | 0.00 | 57 | 1015.4 |
| 20260830083001 | 22 | 205 | 6.4 | 9.7 | 0.00 | 0.00 | 0.00 | 62 | 1013.7 |
| 20260830082958 | 22 | 209 | 8.0 | 11.3 | 0.00 | 0.00 | 0.00 | 59 | 1015.5 |
| 20260830082458 | 22 | 203 | 8.0 | 12.9 | 0.00 | 0.00 | 0.00 | 60 | 1015.5 |
| 20260830081958 | 22 | 196 | 11.3 | 19.3 | 0.00 | 0.00 | 0.00 | 59 | 1015.8 |
| 20260830081502 | 21 | 195 | 11.3 | 17.7 | 0.00 | 0.00 | 0.00 | 62 | 1013.7 |
| 20260830081458 | 21 | 198 | 11.3 | 19.3 | 0.00 | 0.00 | 0.00 | 59 | 1015.4 |
| 20260830080501 | 21 | 196 | 11.3 | 17.7 | 0.00 | 0.00 | 0.00 | 62 | 1013.6 |
| 20260830080458 | 21 | 179 | 14.5 | 19.3 | 0.00 | 0.00 | 0.00 | 57 | 1015.6 |
| 20260830080003 | 21 | 183 | 12.9 | 22.5 | 0.00 | 0.00 | 0.00 | 57 | 1015.7 |
| 20260830075501 | 21 | 184 | 9.7 | 20.9 | 0.00 | 0.00 | 0.00 | 62 | 1013.7 |
| 20260830075458 | 21 | 179 | 12.9 | 22.5 | 0.00 | 0.00 | 0.00 | 58 | 1015.4 |
| 20260830075001 | 21 | 198 | 11.3 | 20.9 | 0.00 | 0.00 | 0.00 | 63 | 1013.8 |
| 20260830074958 | 21 | 185 | 12.9 | 17.7 | 0.00 | 0.00 | 0.00 | 58 | 1015.6 |
| 20260830074502 | 21 | 212 | 8.0 | 16.1 | 0.00 | 0.00 | 0.00 | 63 | 1013.7 |
| 20260830074458 | 21 | 196 | 9.7 | 17.7 | 0.00 | 0.00 | 0.00 | 59 | 1015.6 |
| 20260830074002 | 21 | 203 | 8.0 | 16.1 | 0.00 | 0.00 | 0.00 | 65 | 1013.7 |
| 20260830073958 | 21 | 195 | 9.7 | 17.7 | 0.00 | 0.00 | 0.00 | 62 | 1015.5 |
| 20260830073501 | 20 | 189 | 9.7 | 14.5 | 0.00 | 0.00 | 0.00 | 65 | 1013.7 |
| 20260830073458 | 21 | 192 | 11.3 | 16.1 | 0.00 | 0.00 | 0.00 | 60 | 1015.5 |
| 20260830073001 | 20 | 200 | 9.7 | 14.5 | 0.00 | 0.03 | 0.00 | 67 | 1013.8 |
| 20260830072958 | 20 | 194 | 9.7 | 14.5 | 0.00 | 0.00 | 0.00 | 64 | 1015.6 |
| 20260830072501 | 20 | 203 | 11.3 | 14.5 | 0.00 | 0.03 | 0.00 | 68 | 1013.9 |
| 20260830072458 | 20 | 187 | 11.3 | 14.5 | 0.00 | 0.00 | 0.00 | 64 | 1015.6 |
| 20260830072002 | 19 | 186 | 6.4 | 12.9 | 0.00 | 0.03 | 0.00 | 73 | 1013.8 |
| 20260830071958 | 20 | 174 | 8.0 | 14.5 | 0.00 | 0.03 | 0.00 | 66 | 1015.7 |
| 20260830071501 | 19 | 186 | 6.4 | 9.7 | 0.00 | 0.03 | 0.00 | 75 | 1013.8 |
| 20260830071458 | 19 | 175 | 8.0 | 11.3 | 0.00 | 0.03 | 0.00 | 70 | 1015.6 |
| 20260830071001 | 18 | 190 | 6.4 | 9.7 | 0.00 | 0.03 | 0.00 | 76 | 1013.8 |
| 20260830070958 | 18 | 176 | 8.0 | 11.3 | 0.00 | 0.03 | 0.00 | 70 | 1015.6 |
| 20260830070502 | 18 | 178 | 6.4 | 9.7 | 0.00 | 0.03 | 0.00 | 79 | 1013.8 |
| 20260830070458 | 18 | 181 | 6.4 | 9.7 | 0.00 | 0.03 | 0.00 | 75 | 1015.6 |
| 20260830070002 | 18 | 175 | 8.0 | 9.7 | 0.00 | 0.03 | 0.00 | 79 | 1013.7 |
| 20260830065501 | 17 | 179 | 8.0 | 9.7 | 0.00 | 0.03 | 0.00 | 81 | 1013.9 |
| 20260830065458 | 18 | 179 | 8.0 | 9.7 | 0.00 | 0.03 | 0.00 | 75 | 1015.5 |
| 20260830065001 | 17 | 181 | 4.8 | 9.7 | 0.00 | 0.03 | 0.00 | 83 | 1013.8 |
| 20260830064958 | 17 | 181 | 6.4 | 9.7 | 0.00 | 0.03 | 0.00 | 77 | 1015.7 |
| 20260830064501 | 17 | 189 | 3.2 | 9.7 | 0.00 | 0.03 | 0.00 | 85 | 1013.8 |
| 20260830064458 | 17 | 186 | 4.8 | 9.7 | 0.00 | 0.03 | 0.00 | 81 | 1015.8 |
| 20260830064001 | 17 | 171 | 6.4 | 9.7 | 0.00 | 0.03 | 0.00 | 86 | 1013.8 |
| 20260830063501 | 16 | 168 | 6.4 | 9.7 | 0.00 | 0.03 | 0.00 | 89 | 1013.8 |
| 20260830063458 | 17 | 173 | 8.0 | 9.7 | 0.00 | 0.05 | 0.00 | 84 | 1015.7 |
| 20260830062501 | 15 | 172 | 6.4 | 8.0 | 0.00 | 0.10 | 0.00 | 93 | 1013.6 |
| 20260830062458 | 16 | 160 | 8.0 | 8.0 | 0.00 | 0.13 | 0.00 | 94 | 1015.6 |
| 20260830062001 | 15 | 172 | 4.8 | 8.0 | 0.00 | 0.10 | 0.00 | 93 | 1013.8 |
| 20260830061958 | 15 | 175 | 6.4 | 8.0 | 0.00 | 0.13 | 0.00 | 95 | 1015.5 |
| 20260830061502 | 15 | 181 | 1.6 | 8.0 | 0.00 | 0.10 | 0.00 | 94 | 1013.8 |
| 20260830061458 | 15 | 185 | 6.4 | 6.4 | 0.00 | 0.13 | 0.00 | 97 | 1015.7 |
| 20260830061002 | 15 | 181 | 0.0 | 6.4 | 0.00 | 0.10 | 0.00 | 95 | 1013.6 |
| 20260830060958 | 15 | 184 | 6.4 | 8.0 | 0.00 | 0.13 | 0.00 | 99 | 1015.6 |
| 20260830060501 | 15 | 0 | 0.0 | 0.0 | 0.00 | 0.10 | 0.00 | 96 | 1013.8 |
| 20260830060458 | 14 | 182 | 6.4 | 8.0 | 0.00 | 0.13 | 0.00 | 99 | 1015.7 |
| 20260830060004 | 14 | 167 | 4.8 | 8.0 | 0.00 | 0.13 | 0.00 | 99 | 1015.7 |
| 20260830055502 | 15 | 0 | 0.0 | 0.0 | 0.00 | 0.13 | 0.00 | 97 | 1013.8 |
| 20260830055458 | 14 | 148 | 1.6 | 3.2 | 0.00 | 0.15 | 0.00 | 99 | 1015.6 |
| 20260830055001 | 14 | 0 | 0.0 | 0.0 | 0.00 | 0.15 | 0.00 | 98 | 1013.7 |
| 20260830054958 | 13 | 135 | 1.6 | 3.2 | 0.00 | 0.18 | 0.00 | 99 | 1015.7 |
| 20260830054501 | 14 | 0 | 0.0 | 0.0 | 0.00 | 0.15 | 0.00 | 98 | 1013.7 |
| 20260830054001 | 14 | 0 | 0.0 | 0.0 | 0.00 | 0.20 | 0.00 | 98 | 1013.8 |
| 20260830053958 | 13 | 0 | 0.0 | 0.0 | 0.00 | 0.28 | 0.00 | 99 | 1015.7 |
| 20260830053002 | 13 | 0 | 0.0 | 0.0 | 0.00 | 0.20 | 0.00 | 99 | 1013.8 |
| 20260830052958 | 13 | 0 | 0.0 | 0.0 | 0.00 | 0.28 | 0.00 | 99 | 1015.8 |
| 20260830052502 | 13 | 0 | 0.0 | 0.0 | 0.00 | 0.20 | 0.00 | 99 | 1013.8 |
| 20260830052458 | 12 | 135 | 0.0 | 3.2 | 0.00 | 0.30 | 0.00 | 97 | 1015.8 |
| 20260830052001 | 12 | 0 | 0.0 | 0.0 | 0.00 | 0.20 | 0.00 | 97 | 1013.7 |
| 20260830051959 | 12 | 135 | 1.6 | 3.2 | 0.00 | 0.30 | 0.00 | 97 | 1015.7 |
| 20260830051501 | 12 | 0 | 0.0 | 0.0 | 0.00 | 0.20 | 0.00 | 97 | 1013.7 |
| 20260830051458 | 12 | 135 | 0.0 | 3.2 | 0.00 | 0.30 | 0.00 | 97 | 1015.8 |
| 20260830050004 | 12 | 174 | 3.2 | 4.8 | 0.00 | 0.30 | 0.00 | 97 | 1016.0 |
| 20260830050001 | 12 | 174 | 1.6 | 4.8 | 0.00 | 0.20 | 0.00 | 97 | 1013.6 |
| 20260830045502 | 12 | 181 | 0.0 | 4.8 | 0.00 | 0.20 | 0.00 | 97 | 1013.6 |
| 20260830045458 | 12 | 170 | 3.2 | 4.8 | 0.00 | 0.30 | 0.00 | 97 | 1015.7 |
| 20260830045001 | 12 | 181 | 0.0 | 1.6 | 0.00 | 0.23 | 0.00 | 97 | 1013.6 |
| 20260830044501 | 11 | 0 | 0.0 | 0.0 | 0.00 | 0.23 | 0.00 | 98 | 1013.5 |
| 20260830044002 | 11 | 0 | 0.0 | 0.0 | 0.00 | 0.23 | 0.00 | 98 | 1013.5 |
| 20260830043958 | 11 | 147 | 3.2 | 3.2 | 0.00 | 0.30 | 0.00 | 98 | 1015.6 |
| 20260830043502 | 11 | 0 | 0.0 | 0.0 | 0.00 | 0.23 | 0.00 | 98 | 1013.6 |
| 20260830043458 | 11 | 142 | 3.2 | 3.2 | 0.00 | 0.30 | 0.00 | 99 | 1015.7 |
| 20260830043001 | 10 | 0 | 0.0 | 0.0 | 0.00 | 0.23 | 0.00 | 99 | 1013.6 |
| 20260830042959 | 10 | 135 | 1.6 | 3.2 | 0.00 | 0.30 | 0.00 | 99 | 1015.6 |
| 20260830042501 | 10 | 0 | 0.0 | 0.0 | 0.00 | 0.23 | 0.00 | 99 | 1013.5 |
| 20260830042002 | 10 | 0 | 0.0 | 0.0 | 0.00 | 0.23 | 0.00 | 99 | 1013.5 |
| 20260830041958 | 9 | 181 | 0.0 | 1.6 | 0.00 | 0.33 | 0.00 | 99 | 1015.5 |
| 20260830041501 | 10 | 0 | 0.0 | 0.0 | 0.00 | 0.28 | 0.00 | 99 | 1013.6 |
| 20260830041458 | 9 | 181 | 0.0 | 1.6 | 0.00 | 0.33 | 0.00 | 99 | 1015.6 |
| 20260830041001 | 10 | 0 | 0.0 | 0.0 | 0.00 | 0.28 | 0.00 | 99 | 1013.6 |
| 20260830040958 | 9 | 0 | 0.0 | 0.0 | 0.00 | 0.36 | 0.00 | 99 | 1015.5 |
| 20260830040502 | 10 | 0 | 0.0 | 0.0 | 0.00 | 0.33 | 0.00 | 98 | 1013.5 |
| 20260830040004 | 9 | 270 | 0.0 | 1.6 | 0.00 | 0.43 | 0.00 | 99 | 1015.7 |
| 20260830040002 | 10 | 0 | 0.0 | 0.0 | 0.00 | 0.33 | 0.00 | 98 | 1013.4 |
| 20260830035501 | 10 | 0 | 0.0 | 0.0 | 0.00 | 0.33 | 0.00 | 98 | 1013.4 |
| 20260830035458 | 9 | 270 | 0.0 | 1.6 | 0.00 | 0.43 | 0.00 | 99 | 1015.4 |
| 20260830035001 | 10 | 0 | 0.0 | 0.0 | 0.00 | 0.33 | 0.00 | 98 | 1013.4 |
| 20260830034958 | 10 | 270 | 0.0 | 1.6 | 0.00 | 0.43 | 0.00 | 99 | 1015.4 |
| 20260830034502 | 10 | 0 | 0.0 | 0.0 | 0.00 | 0.33 | 0.00 | 98 | 1013.5 |
| 20260830034458 | 10 | 208 | 0.0 | 3.2 | 0.00 | 0.43 | 0.00 | 99 | 1015.6 |
| 20260830034001 | 10 | 0 | 0.0 | 0.0 | 0.00 | 0.33 | 0.00 | 98 | 1013.6 |
| 20260830033957 | 10 | 186 | 0.0 | 3.2 | 0.00 | 0.43 | 0.00 | 99 | 1015.6 |
| 20260830033501 | 10 | 0 | 0.0 | 0.0 | 0.00 | 0.33 | 0.00 | 98 | 1013.5 |
| 20260830033459 | 10 | 0 | 0.0 | 0.0 | 0.00 | 0.43 | 0.00 | 99 | 1015.6 |
| 20260830033001 | 10 | 0 | 0.0 | 0.0 | 0.00 | 0.33 | 0.00 | 99 | 1013.4 |
| 20260830032501 | 10 | 0 | 0.0 | 0.0 | 0.00 | 0.33 | 0.00 | 99 | 1013.5 |
| 20260830032457 | 10 | 127 | 0.0 | 1.6 | 0.00 | 0.43 | 0.00 | 99 | 1015.5 |
| 20260830032001 | 10 | 0 | 0.0 | 0.0 | 0.00 | 0.33 | 0.00 | 98 | 1013.5 |
| 20260830031501 | 10 | 0 | 0.0 | 0.0 | 0.00 | 0.33 | 0.00 | 98 | 1013.4 |
| 20260830031458 | 10 | 90 | 0.0 | 1.6 | 0.00 | 0.43 | 0.00 | 99 | 1015.6 |
| 20260830031001 | 10 | 0 | 0.0 | 0.0 | 0.00 | 0.33 | 0.00 | 98 | 1013.5 |
| 20260830030958 | 10 | 90 | 0.0 | 1.6 | 0.00 | 0.43 | 0.00 | 99 | 1015.6 |
| 20260830030501 | 10 | 0 | 0.0 | 0.0 | 0.00 | 0.33 | 0.00 | 98 | 1013.4 |
| 20260830030458 | 10 | 90 | 0.0 | 1.6 | 0.00 | 0.43 | 0.00 | 99 | 1015.5 |
| 20260830030003 | 10 | 0 | 0.0 | 0.0 | 0.00 | 0.43 | 0.00 | 99 | 1015.5 |
| 20260830025501 | 10 | 0 | 0.0 | 0.0 | 0.00 | 0.33 | 0.00 | 98 | 1013.5 |
| 20260830025458 | 10 | 0 | 0.0 | 0.0 | 0.00 | 0.43 | 0.00 | 99 | 1015.5 |
| 20260830025001 | 10 | 0 | 0.0 | 0.0 | 0.00 | 0.33 | 0.00 | 98 | 1013.5 |
| 20260830024958 | 10 | 90 | 0.0 | 1.6 | 0.00 | 0.43 | 0.00 | 99 | 1015.5 |
| 20260830024458 | 10 | 90 | 0.0 | 1.6 | 0.00 | 0.43 | 0.00 | 99 | 1015.7 |
| 20260830024001 | 10 | 0 | 0.0 | 0.0 | 0.00 | 0.33 | 0.00 | 98 | 1013.7 |
| 20260830023958 | 10 | 0 | 0.0 | 0.0 | 0.00 | 0.43 | 0.00 | 99 | 1015.8 |
| 20260830023501 | 10 | 0 | 0.0 | 0.0 | 0.00 | 0.33 | 0.00 | 98 | 1013.7 |
| 20260830023458 | 10 | 0 | 0.0 | 0.0 | 0.00 | 0.43 | 0.00 | 99 | 1015.6 |
| 20260830023001 | 10 | 0 | 0.0 | 0.0 | 0.00 | 0.33 | 0.00 | 98 | 1013.6 |
| 20260830022958 | 10 | 0 | 0.0 | 0.0 | 0.00 | 0.43 | 0.00 | 99 | 1015.5 |
| 20260830022502 | 10 | 0 | 0.0 | 0.0 | 0.00 | 0.33 | 0.00 | 98 | 1013.6 |
| 20260830022458 | 10 | 0 | 0.0 | 0.0 | 0.00 | 0.43 | 0.00 | 99 | 1015.6 |
| 20260830022001 | 10 | 0 | 0.0 | 0.0 | 0.00 | 0.33 | 0.00 | 98 | 1013.5 |
| 20260830021958 | 10 | 0 | 0.0 | 0.0 | 0.00 | 0.43 | 0.00 | 99 | 1015.7 |
| 20260830021501 | 10 | 0 | 0.0 | 0.0 | 0.00 | 0.33 | 0.00 | 98 | 1013.7 |
| 20260830021458 | 10 | 0 | 0.0 | 0.0 | 0.00 | 0.43 | 0.00 | 99 | 1015.8 |
| 20260830021002 | 10 | 0 | 0.0 | 0.0 | 0.00 | 0.33 | 0.00 | 98 | 1013.6 |
| 20260830020958 | 10 | 0 | 0.0 | 0.0 | 0.00 | 0.43 | 0.00 | 99 | 1015.7 |
| 20260830020501 | 10 | 0 | 0.0 | 0.0 | 0.00 | 0.33 | 0.00 | 98 | 1013.6 |
| 20260830020458 | 10 | 0 | 0.0 | 0.0 | 0.00 | 0.43 | 0.00 | 99 | 1015.8 |
| 20260830020004 | 10 | 0 | 0.0 | 0.0 | 0.00 | 0.43 | 0.00 | 99 | 1015.9 |
| 20260830020001 | 10 | 0 | 0.0 | 0.0 | 0.00 | 0.33 | 0.00 | 98 | 1013.8 |
| 20260830015502 | 10 | 0 | 0.0 | 0.0 | 0.00 | 0.33 | 0.00 | 98 | 1013.6 |
| 20260830015458 | 10 | 0 | 0.0 | 0.0 | 0.00 | 0.43 | 0.00 | 99 | 1015.6 |
| 20260830015001 | 10 | 0 | 0.0 | 0.0 | 0.00 | 0.33 | 0.00 | 98 | 1013.7 |
| 20260830014958 | 10 | 90 | 0.0 | 1.6 | 0.00 | 0.43 | 0.00 | 99 | 1015.5 |